www.pogodaiklimat.ru

Погода и климат >> Архив погоды >> Венгрия >> Агард


ПОГОДА в Агарде

  • Прогноз погоды в Агарде
  • Монитор погоды в Агарде

АРХИВ ПОГОДЫ в Агарде

Время (UTC), дата Ветер
(напр.,м/с)
 
Видим.   Явления Облачность Т
(С)
Тd
(С)
f
(%)
Тe
(С)
Тes
(С)
Комфортность P
(гПа)
Po
(гПа)
Тmin
(С)
Tmax
(С)
R
(мм)
R24
(мм)
S
(см)
16 14.03 З 3 н/о н/о +10.3 -0.2 48 +9 +9 1009.2 996.4
17 14.03 Ю 1 н/о н/о +7.4 -0.1 59 +7 +7 1008.7 995.8
18 14.03 ЮВ 2 н/о н/о +7.0 -0.2 60 +5 +5 1008.2 995.3 +11.5
19 14.03 ЮВ 2 н/о н/о +6.1 -0.2 64 +4 +4 1007.2 994.3
20 14.03 Ю 2 н/о н/о +5.2 -0.4 67 +3 +3 1006.8 993.8
21 14.03 ЮВ 2 н/о н/о +5.6 -0.7 64 +3 +3 1006.1 993.1
22 14.03 Ю 2 н/о н/о +6.3 -0.9 60 +4 +4 1005.4 992.5
23 14.03 ЮЗ 1 н/о н/о +4.7 -0.5 69 +4 +4 1005.0 992.0
00 15.03 штиль 0 н/о н/о +4.1 -0.5 72 +3 +3 1004.7 991.7
01 15.03 Ю 2 н/о н/о +5.0 -0.8 66 +3 +3 1004.6 991.6
02 15.03 З 1 н/о н/о +4.9 -0.3 69 +4 +4 1005.3 992.3
03 15.03 З 1 н/о н/о +4.3 +2.3 87 +3 +3 1005.1 992.1
04 15.03 штиль 0 н/о н/о +3.9 +2.3 89 +3 +3 1005.6 992.6
05 15.03 Ю 1 н/о н/о +4.2 +1.7 84 +3 +3 1006.2 993.2
06 15.03 СЗ 5
{10}
н/о н/о +7.4 +2.7 72 +4 +4 1006.7 993.8 +3.5 0.2
07 15.03 З 4 н/о н/о +7.9 +2.8 70 +5 +5 1007.7 994.8
08 15.03 З 7
{11}
н/о н/о +10.0 +2.6 60 +7 +7 1008.2 995.4
09 15.03 З 9
{14}
н/о н/о +10.5 +2.1 56 +7 +7 1008.7 995.9
10 15.03 З 10
{15}
н/о н/о +11.1 +0.8 49 +7 +7 1008.7 996.0
11 15.03 СЗ 7
{15}
н/о н/о +10.8 -0.1 47 +8 +8 1009.2 996.4
12 15.03 СЗ 5
{9}
н/о н/о +10.9 +0.3 48 +9 +9 1008.5 995.8
13 15.03 З 7
{10}
н/о н/о +12.5 -0.7 40 +10 +10 1008.2 995.5
14 15.03 З 7
{13}
н/о н/о +12.2 -1.0 40 +10 +10 1008.7 996.0
15 15.03 З 4
{11}
н/о н/о +11.3 -0.5 44 +9 +9 1008.9 996.2
16 15.03 СЗ 5
{12}
н/о н/о +10.2 +2.1 57 +8 +8 1009.5 996.7
17 15.03 З 6
{8}
н/о н/о +9.5 +2.6 62 +6 +6 1009.8 997.0
18 15.03 З 3
{8}
н/о н/о +8.9 +2.5 64 +7 +7 1009.8 997.0 +12.6
19 15.03 ЮЗ 1 н/о н/о +8.2 +3.1 70 +8 +8 1009.3 996.4
20 15.03 Ю 1 н/о н/о +7.4 +3.6 77 +7 +7 1009.4 996.5
21 15.03 Ю 2 н/о н/о +6.7 +4.7 87 +4 +4 1009.1 996.2
22 15.03 Ю 2 н/о н/о +6.5 +5.0 90 +4 +4 1008.9 996.0
23 15.03 Ю 1 н/о н/о +6.4 +5.4 93 +5 +5 1008.3 995.4
00 16.03 ЮЗ 2 н/о н/о +6.5 +5.5 93 +4 +4 1007.6 994.7 1
01 16.03 ЮЗ 2 н/о н/о +6.3 +4.9 91 +4 +4 1006.8 993.9
02 16.03 Ю 2 н/о н/о +6.7 +3.8 82 +4 +4 1006.2 993.3
03 16.03 ЮЗ 4
{9}
н/о н/о +8.0 +2.7 69 +5 +5 1005.3 992.5
04 16.03 СЗ 7
{12}
н/о н/о +8.0 +4.4 78 +4 +4 1008.3 995.4
05 16.03 З 4
{8}
н/о н/о +7.9 +6.7 92 +4 +4 1009.4 996.5
06 16.03 З 4
{8}
н/о н/о +7.5 +6.3 92 +4 +4 1011.0 998.1 +6.1 2
07 16.03 СЗ 6
{10}
н/о н/о +7.6 +4.4 80 +3 +3 1012.0 999.1
08 16.03 З 7
{10}
н/о н/о +8.7 +4.3 74 +5 +5 1012.2 999.3
09 16.03 СЗ 8
{12}
н/о н/о +9.3 +3.3 66 +5 +5 1013.1 1000.2
10 16.03 СЗ 10
{16}
н/о н/о +9.6 +2.7 62 +5 +5 1013.5 1000.6
11 16.03 СЗ 9
{15}
н/о н/о +9.6 +3.4 65 +5 +5 1013.6 1000.7
12 16.03 СЗ 10
{14}
н/о н/о +10.5 +2.1 56 +7 +7 1013.1 1000.3
13 16.03 СЗ 8
{15}
н/о н/о +9.9 +2.0 58 +6 +6 1013.1 1000.3
14 16.03 З 5
{10}
н/о н/о +10.0 +3.7 65 +7 +7 1013.7 1000.9
15 16.03 З 4
{9}
н/о н/о +9.5 +4.5 71 +7 +7 1013.8 1000.9
16 16.03 З 3 н/о н/о +9.2 +4.6 73 +7 +7 1013.8 1000.9
17 16.03 штиль 0 н/о н/о +8.7 +4.7 76 +8 +8 1014.0 1001.1
18 16.03 штиль 0 н/о н/о +8.2 +4.8 79 +7 +7 1014.0 1001.1 +10.8
19 16.03 штиль 0 н/о н/о +7.8 +4.6 80 +7 +7 1014.3 1001.3
20 16.03 З 1 н/о н/о +7.5 +4.6 82 +7 +7 1014.1 1001.1
21 16.03 штиль 0 н/о н/о +5.8 +4.3 90 +5 +5 1014.1 1001.1
22 16.03 В 1 н/о н/о +5.1 +3.9 92 +4 +4 1014.0 1000.9
23 16.03 штиль 0 н/о н/о +6.4 +4.6 88 +5 +5 1013.7 1000.7
00 17.03 штиль 0 н/о н/о +5.2 +3.9 91 +4 +4 1013.4 1000.3
01 17.03 штиль 0 н/о н/о +4.5 +4.1 97 +3 +3 1012.9 999.8
02 17.03 штиль 0 н/о н/о +3.8 +3.4 97 +3 +3 1012.4 999.3
03 17.03 Ю 1 н/о н/о +2.8 +2.7 99 +1 +1 1012.0 998.8
04 17.03 штиль 0 н/о н/о +1.9 +1.6 98 +1 +1 1011.9 998.7
05 17.03 штиль 0 н/о н/о +1.2 +0.9 98 -0 -0 1012.0 998.8
06 17.03 штиль 0 н/о н/о +4.8 +3.9 94 +4 +4 1012.3 999.2 +1.2
07 17.03 ЮЗ 1 н/о н/о +8.3 +5.2 81 +8 +8 1012.2 999.3
08 17.03 ЮЗ 3 н/о н/о +11.9 +7.2 73 +10 +10 1011.9 999.2
09 17.03 ЮЗ 4
{8}
н/о н/о +15.3 +7.8 61 +14 +14 1011.6 999.0
10 17.03 ЮЗ 5
{11}
н/о н/о +17.3 +7.6 53 +17 +17 1011.0 998.5
11 17.03 Ю 3
{9}
н/о н/о +19.6 +8.6 49 +21 +21 комфорт 1010.4 998.0
12 17.03 Ю 4
{8}
н/о н/о +21.3 +8.2 43 +22 +22 комфорт 1009.4 997.1
13 17.03 Ю 4
{9}
н/о н/о +22.0 +7.8 40 +23 +23 комфорт 1008.5 996.2
14 17.03 Ю 5
{10}
н/о н/о +21.6 +7.1 39 +22 +22 комфорт 1007.8 995.5
15 17.03 Ю 5
{10}
н/о н/о +21.3 +6.4 38 +22 +22 комфорт 1007.2 994.9
16 17.03 Ю 5
{11}
н/о н/о +20.7 +5.5 37 +21 +21 комфорт 1006.9 994.6
17 17.03 Ю 3
{8}
н/о н/о +18.5 +4.7 40 +19 +19 1006.5 994.1
18 17.03 Ю 3 н/о н/о +17.1 +4.8 44 +17 +17 1006.3 993.9 +22.0
19 17.03 ЮЗ 2 н/о н/о +14.2 +4.5 52 +14 +14 1007.0 994.4
20 17.03 Ю 3 н/о н/о +14.8 +5.9 55 +14 +14 1007.0 994.4
21 17.03 Ю 2
{7}
н/о н/о +13.2 +5.4 59 +13 +13 1006.9 994.3
22 17.03 Ю 4
{7}
н/о н/о +13.3 +5.7 60 +12 +12 1007.0 994.4
23 17.03 Ю 4
{8}
н/о н/о +13.2 +6.1 62 +12 +12 1007.2 994.6
00 18.03 ЮЗ 4
{7}
н/о н/о +12.3 +6.1 66 +10 +10 1007.8 995.1
01 18.03 З 8
{14}
н/о н/о +12.4 +6.2 66 +9 +9 1009.4 996.7
02 18.03 З 7
{17}
н/о н/о +10.1 +3.6 64 +7 +7 1010.7 997.9
03 18.03 З 4
{12}
н/о н/о +9.1 +2.9 65 +6 +6 1011.8 998.9
04 18.03 СЗ 5
{10}
н/о н/о +8.7 +1.6 61 +6 +6 1011.5 998.6
05 18.03 СЗ 8
{11}
н/о н/о +8.6 +1.7 62 +4 +4 1012.6 999.7
06 18.03 СЗ 7
{14}
н/о н/о +8.7 +1.6 61 +5 +5 1013.3 1000.4 +8.5
07 18.03 СЗ 6
{11}
н/о н/о +8.7 +1.8 62 +5 +5 1015.0 1002.1
08 18.03 СЗ 7
{10}
н/о н/о +8.5 +2.7 67 +4 +4 1015.1 1002.2
09 18.03 СЗ 5
{12}
н/о н/о +8.6 +2.6 66 +5 +5 1015.1 1002.2
10 18.03 СЗ 8
{13}
н/о н/о +8.5 +1.9 63 +4 +4 1015.6 1002.7
11 18.03 СЗ 7
{14}
н/о н/о +8.5 +1.9 63 +5 +5 1016.4 1003.4
12 18.03 СЗ 8
{14}
н/о н/о +8.6 +1.7 62 +4 +4 1016.2 1003.3
13 18.03 СЗ 7
{12}
н/о н/о +8.6 +1.5 61 +5 +5 1016.2 1003.3
14 18.03 СЗ 6
{12}
н/о н/о +8.6 +1.7 62 +5 +5 1016.5 1003.6
15 18.03 СЗ 6
{9}
н/о н/о +8.5 +1.9 63 +5 +5 1016.9 1003.9
16 18.03 СЗ 4
{10}
н/о н/о +8.3 +1.9 64 +5 +5 1017.6 1004.6
17 18.03 З 3
{7}
н/о н/о +8.0 +1.6 64 +6 +6 1018.2 1005.2
18 18.03 З 1 н/о н/о +7.7 +0.9 62 +7 +7 1019.3 1006.3 +8.7
19 18.03 З 2 н/о н/о +7.2 +1.3 66 +5 +5 1019.9 1006.8
20 18.03 З 3 н/о н/о +6.8 +1.1 67 +4 +4 1020.3 1007.2
21 18.03 З 2 н/о н/о +6.4 +0.7 67 +4 +4 1020.8 1007.7
22 18.03 З 2 н/о н/о +6.2 +0.3 66 +4 +4 1021.2 1008.1
23 18.03 СЗ 3 н/о н/о +6.3 +1.2 70 +3 +3 1021.4 1008.3
00 19.03 СЗ 3 н/о н/о +5.9 +1.2 72 +3 +3 1021.8 1008.7
01 19.03 СЗ 4 н/о н/о +5.6 +1.1 73 +2 +2 1021.8 1008.6
02 19.03 СЗ 5
{7}
н/о н/о +5.6 +1.3 74 +1 +1 1022.0 1008.8
03 19.03 СЗ 3
{7}
н/о н/о +5.3 +1.0 74 +2 +2 1022.3 1009.1
04 19.03 СЗ 3 н/о н/о +5.3 +0.9 73 +2 +2 1022.7 1009.5
05 19.03 СЗ 5
{7}
н/о н/о +5.2 +0.8 73 +1 +1 1022.7 1009.5
06 19.03 СЗ 4
{7}
н/о н/о +5.2 +0.6 72 +1 +1 1023.2 1010.0 +5.0
07 19.03 С 3 н/о н/о +6.1 +0.2 66 +3 +3 1023.6 1010.4
08 19.03 СЗ 4
{7}
н/о н/о +6.8 +0.3 63 +4 +4 1024.0 1010.9
09 19.03 СЗ 5
{7}
н/о н/о +6.8 +0.3 63 +3 +3 1024.4 1011.3
10 19.03 СЗ 4
{7}
н/о н/о +7.4 +0.6 62 +4 +4 1024.7 1011.6
11 19.03 СЗ 5
{9}
н/о н/о +8.0 +0.7 60 +5 +5 1024.8 1011.7
12 19.03 СЗ 5
{9}
н/о н/о +9.3 -0.3 51 +6 +6 1024.5 1011.5
13 19.03 СЗ 6
{9}
н/о н/о +9.4 -0.5 50 +6 +6 1024.2 1011.2
14 19.03 СЗ 6
{10}
н/о н/о +10.0 -2.6 41 +7 +7 1024.2 1011.2
15 19.03 СЗ 6
{9}
н/о н/о +10.0 -2.3 42 +7 +7 1024.5 1011.5
16 19.03 СЗ 6
{9}
н/о н/о +9.5 -2.4 43 +6 +6 1025.0 1012.0
17 19.03 СЗ 4
{9}
н/о н/о +8.6 -2.4 46 +6 +6 1025.9 1012.8
18 19.03 СЗ 3 н/о н/о +7.2 -1.5 54 +5 +5 1026.7 1013.6 +10.4
19 19.03 СЗ 3 н/о н/о +6.2 -1.2 59 +3 +3 1027.2 1014.0
20 19.03 СЗ 3 н/о н/о +6.3 -2.1 55 +4 +4 1027.5 1014.3
21 19.03 СЗ 4 н/о н/о +5.6 -2.0 58 +2 +2 1027.7 1014.5
22 19.03 СЗ 4 н/о н/о +4.7 -2.2 61 +1 +1 1028.1 1014.8
23 19.03 штиль 0 н/о н/о +3.2 -2.7 65 +3 +3 1028.7 1015.3
00 20.03 С 1 н/о н/о +3.8 -2.8 62 +3 +3 1029.2 1015.9
01 20.03 СЗ 3 н/о н/о +4.3 -2.1 63 +1 +1 1029.5 1016.2
02 20.03 СЗ 2 н/о н/о +3.6 -2.6 64 +1 +1 1029.9 1016.5
03 20.03 СЗ 2 н/о н/о +2.7 -3.2 65 0 0 1030.2 1016.8
04 20.03 СЗ 2 н/о н/о +2.2 -2.9 69 -1 -1 1030.5 1017.1
05 20.03 СЗ 4 н/о н/о +1.9 -2.8 71 -3 -3 1031.1 1017.6
06 20.03 СЗ 2 н/о н/о +2.5 -2.6 69 -0 -0 1031.8 1018.4 +1.8
07 20.03 СЗ 4 н/о н/о +4.0 -2.2 64 0 0 1032.5 1019.1
08 20.03 СЗ 2 н/о н/о +7.3 -1.9 52 +6 +6 1032.9 1019.7
09 20.03 С 1 н/о н/о +8.9 -2.7 44 +9 +9 1032.9 1019.8
10 20.03 С 4 н/о н/о +9.8 -2.8 41 +8 +8 1033.0 1019.9
11 20.03 СЗ 4
{8}
н/о н/о +10.6 -5.0 33 +9 +9 1033.0 1019.9
12 20.03 СЗ 3
{8}
н/о н/о +11.0 -5.5 31 +10 +10 1032.6 1019.6
13 20.03 СЗ 4
{8}
н/о н/о +11.1 -3.8 35 +9 +9 1032.3 1019.3
14 20.03 СЗ 6
{8}
н/о н/о +11.0 -5.1 32 +9 +9 1032.4 1019.4
15 20.03 СЗ 5
{8}
н/о н/о +10.7 -4.5 34 +8 +8 1032.5 1019.4
16 20.03 СЗ 6
{9}
н/о н/о +10.1 -3.2 39 +7 +7 1032.8 1019.7
17 20.03 СЗ 4
{8}
н/о н/о +8.9 -2.7 44 +6 +6 1033.2 1020.1
18 20.03 СЗ 3 н/о н/о +7.3 -2.4 50 +5 +5 1033.8 1020.6 +11.3
19 20.03 СЗ 3 н/о н/о +6.2 -2.2 55 +4 +4 1034.4 1021.1
20 20.03 З 2 н/о н/о +4.6 -3.7 55 +2 +2 1034.9 1021.5
21 20.03 З 2 н/о н/о +3.0 -3.6 62 0 0 1035.2 1021.7
22 20.03 СЗ 3 н/о н/о +5.1 -2.7 57 +2 +2 1035.4 1022.0
23 20.03 З 1 н/о н/о +4.3 -3.5 57 +3 +3 1035.5 1022.1
00 21.03 В 1 н/о н/о +2.0 -4.3 63 +1 +1 1035.9 1022.4
01 21.03 штиль 0 н/о н/о -0.4 -4.8 72 -1 -1 1036.1 1022.5
02 21.03 ЮЗ 1 н/о н/о -0.9 -3.7 81 -3 -3 1035.9 1022.2
03 21.03 штиль 0 н/о н/о -1.7 -3.9 85 -3 -3 1036.1 1022.4
04 21.03 З 1 н/о н/о -2.0 -3.7 88 -4 -4 1036.1 1022.4
05 21.03 ЮЗ 1 н/о н/о -2.0 -3.9 87 -4 -4 1036.4 1022.7
06 21.03 штиль 0 н/о н/о +0.2 -3.2 78 -1 -1 1036.8 1023.2 -2.3
07 21.03 штиль 0 н/о н/о +4.3 -0.9 69 +4 +4 1037.2 1023.8
08 21.03 СЗ 1 н/о н/о +7.7 -1.5 52 +7 +7 1037.0 1023.7
09 21.03 З 2 н/о н/о +10.2 -2.8 40 +9 +9 1036.6 1023.5
10 21.03 З 1 н/о н/о +11.5 -3.4 35 +12 +12 1036.6 1023.5
11 21.03 СЗ 2 н/о н/о +12.4 -4.7 30 +12 +12 1036.1 1023.1
12 21.03 СЗ 1 н/о н/о +13.0 -4.6 29 +14 +14 1035.2 1022.2
13 21.03 С 1 н/о н/о +13.6 -4.1 29 +14 +14 1034.1 1021.2
14 21.03 ЮЗ 1 н/о н/о +14.2 -5.5 25 +15 +15 1033.6 1020.7
15 21.03 Ю 1 н/о н/о +14.0 -5.7 25 +15 +15 1033.1 1020.2

 

Местоположение метеостанции Агард (Венгрия): широта 47.18 долгота 18.62 высота над уровнем моря 106 м.

В архиве по умолчанию представлена погода в Агарде за последнюю неделю. Архивные данные за месяц целиком и за предыдущие месяцы, начиная с января 2011 года, Вы можете получить, выбрав интересующий диапазон дат из раскрывающегося списка и нажав кнопку "Ввод!".


*Определитесь, кто Вы:
робот инопланетянин человек

Внимание! Время в таблицах - всемирное. Для получения местного времени необходимо прибавить поправку, которая равна 1 ч.

Смотрите также архив погоды в соседних городах и на ближайших метеорологических станциях:

Погода в Будапеште (Венгрия) (51 км)
Погода в Шиофоке (Венгрия) (52 км)
Погода в Тате (Венгрия) (57 км)
Погода в Веспреме (Венгрия) (61 км)
Погода в Тате (Венгрия) (63 км)
Погода в Пакше (Венгрия) (69 км)
Погода в Пер аэропорту (Венгрия) (78 км)
Погода в Гурбаново (Словакия) (83 км)
Погода на Базе ВВС Папа (Венгрия) (87 км)
Погода в Кечкемете (Венгрия) (90 км)

Пояснения к столбцам:

Ветер - указаны скорость ветра в м/с - средняя за 10 мин, порывы в срок и между сроками (в фигурных скобках) и направление, откуда дует ветер: С - северный, СВ - северо-восточный, В - восточный, ЮВ - юго-восточный, Ю - южный, ЮЗ - юго-западный, З - западный, СЗ - северо-западный.
Видимость - горизонтальная дальность видимости в метрах или километрах. При видимости от 1 до 10 км при отсутствии осадков обычно наблюдается дымка, при ухудшении видимости до 1 км и менее - туман. В сухую погоду видимость может ухудшаться дымом, пылью или мглою.
Явления - указаны атмосферные явления, наблюдавшиеся в срок или в последний час перед сроком; фигурными скобками обозначены явления, наблюдавшиеся между сроками (за 1-3 часа до срока); квадратными скобками обозначены град или гололедные отложения с указанием их диаметра в мм.
Облачность - указаны через наклонную черту общая и нижняя облачность в баллах и высота нижней границы облаков в метрах; квадратными скобками обозначены формы облаков: Ci - перистые, Cs - перисто-слоистые, Cc - перисто-кучевые, Ac - высококучевые, As - высокослоистые, Sc - слоисто-кучевые, Ns - слоисто-дождевые, Cu - кучевые, Cb - кучево-дождевые. Подробнее классификацию облаков см. в Атласе облаков (PDF).
T - Температура воздуха - температура, измеренная на высоте 2 м над землей.
Td - Температура точки росы - температура, при понижении до которой содержащийся в воздухе водяной пар достигнет насыщения.
f - Относительная влажность воздуха - влажноcть воздуха, измеренная на высоте 2 м над землей.
Te - Эффективная температура - температура, которую ощущает одетый по сезону человек в тени. Характеристика душности погоды. При расчете учитывается влияние влажности воздуха и скорости ветра на теплоощущения человека.
Tes - Эффективная температура на солнце - температура, которую ощущает человек, с поправкой на солнечный нагрев. Характеристика знойности погоды. Зависит от высоты солнца над горизонтом, облачности и скорости ветра. Ночью, в пасмурную погоду, а также при ветре 12 м/с и более поправка равна нулю.
P - Атмосферное давление - приведенное к уровню моря атмосферное давление.
Po - Атмосферное давление - измеренное на уровне метеостанции атмосферное давление.
Tmin - Минимальная температура - минимум температуры воздуха на высоте 2 м над землей.
Tmax - Максимальная температура - максимум температуры воздуха на высоте 2 м над землей.
R - Количество осадков - Количество выпавших осадков за период времени, мм. При наведении курсора мыши на число - период времени, за который выпало указанное количество осадков.
R24 - Количество осадков - Количество выпавших осадков за 24 часа, мм.
S - Снежный покров - Высота снежного покрова, см. При наведении курсора мыши на число - состояние снежного покрова и степень покрытия местности в баллах.